FW1757 Weather Reports


Display with metric or nautical units.
time (UTC)temp
F
wind
direction
speed
MPH
gust
MPH
rain 1hr
in
rain 24hr
in
rain mn
in
humidity
%
barometer
mb
20260902031515 64 300 0.0 0.0 0.00 0.00 0.00 65 1007.6
20260902031003 64 288 0.0 0.0 0.00 0.00 0.00 64 1007.6
20260902030507 64 288 0.0 0.0 0.00 0.00 0.00 64 1007.6
20260902030004 65 273 0.0 0.0 0.00 0.00 0.00 64 1007.8
20260902025604 65 278 0.0 0.0 0.00 0.00 0.00 64 1007.7
20260902025002 65 275 0.0 0.0 0.00 0.00 0.00 64 1007.5
20260902024502 65 269 0.0 0.0 0.00 0.00 0.00 64 1007.4
20260902024001 65 308 0.0 0.0 0.00 0.00 0.00 63 1007.4
20260902023501 65 277 0.0 0.0 0.00 0.00 0.00 63 1007.3
20260902023008 65 267 0.0 0.0 0.00 0.00 0.00 63 1007.1
20260902022502 65 271 0.0 0.0 0.00 0.00 0.00 63 1007.0
20260902022004 65 292 0.0 0.0 0.00 0.00 0.00 63 1007.0
20260902021504 65 281 0.0 0.0 0.00 0.00 0.00 63 1006.9
20260902021001 65 308 0.0 0.0 0.00 0.00 0.00 63 1007.3
20260902020501 66 273 0.0 0.0 0.00 0.00 0.00 63 1007.0
20260902020001 66 322 0.0 0.0 0.00 0.00 0.00 62 1007.1
20260902015603 66 296 0.0 0.0 0.00 0.00 0.00 62 1006.9
20260902015101 66 244 0.0 0.0 0.00 0.00 0.00 61 1007.0
20260902014600 66 261 0.0 0.0 0.00 0.00 0.00 60 1006.9
20260902014059 66 252 0.0 0.0 0.00 0.00 0.00 60 1006.8
20260902013600 67 288 0.0 0.0 0.00 0.00 0.00 59 1006.7
20260902013110 67 317 0.0 0.0 0.00 0.00 0.00 59 1006.7
20260902012600 67 250 0.0 0.0 0.00 0.00 0.00 58 1006.7
20260902012059 67 289 0.0 0.0 0.00 0.00 0.00 58 1006.7
20260902011559 68 285 0.0 0.0 0.00 0.00 0.00 59 1006.7
20260902011059 67 293 0.0 0.0 0.00 0.00 0.00 59 1006.9
20260902010601 67 277 0.0 0.0 0.00 0.00 0.00 59 1006.7
20260902010500 67 262 0.0 0.0 0.00 0.00 0.00 59 1006.8
20260902010105 67 278 0.0 0.0 0.00 0.00 0.00 59 1006.6
20260902005558 67 285 0.0 0.0 0.00 0.00 0.00 59 1006.6
20260902005058 67 305 0.0 0.0 0.00 0.00 0.00 59 1006.5
20260902004558 67 300 0.0 0.0 0.00 0.00 0.00 59 1006.6
20260902004059 67 318 0.0 0.0 0.00 0.00 0.00 59 1006.6
20260902003557 68 296 0.0 0.0 0.00 0.00 0.00 59 1006.6
20260902003057 68 275 0.0 0.0 0.00 0.00 0.00 59 1006.4
20260902002558 68 288 0.0 0.0 0.00 0.00 0.00 59 1006.4
20260902002056 68 263 0.0 0.0 0.00 0.00 0.00 60 1006.5
20260902001602 67 304 0.0 0.0 0.00 0.00 0.00 60 1006.4
20260902001056 67 319 0.0 0.0 0.00 0.00 0.00 61 1006.3
20260902000556 67 293 0.0 0.0 0.00 0.00 0.00 61 1006.4
20260902000057 67 254 0.0 0.0 0.00 0.00 0.00 61 1006.4
20260901235557 67 292 0.0 0.0 0.00 0.00 0.00 60 1006.5
20260901235056 67 269 0.0 0.0 0.00 0.00 0.00 59 1006.5
20260901234657 67 319 0.0 0.0 0.00 0.00 0.00 60 1006.4
20260901234057 67 279 0.0 0.0 0.00 0.00 0.00 60 1006.5
20260901233555 67 282 0.0 0.0 0.00 0.00 0.00 60 1006.6
20260901233055 67 274 0.0 0.0 0.00 0.00 0.00 60 1006.6
20260901232555 67 279 0.0 0.0 0.00 0.00 0.00 60 1006.6
20260901232057 68 271 0.0 0.0 0.00 0.00 0.00 59 1006.7
20260901231604 68 247 0.0 0.0 0.00 0.00 0.00 58 1006.7
20260901231054 68 306 0.0 0.0 0.00 0.00 0.00 58 1006.6
20260901230554 68 288 0.0 0.0 0.00 0.00 0.00 59 1006.6
20260901230107 68 300 0.0 0.0 0.00 0.00 0.00 59 1006.6
20260901225554 68 288 0.0 0.0 0.00 0.00 0.00 59 1006.6
20260901225053 68 232 0.0 0.0 0.00 0.00 0.00 59 1006.7
20260901224554 68 295 0.0 0.0 0.00 0.00 0.00 59 1006.5
20260901224058 68 221 0.0 0.0 0.00 0.00 0.00 59 1006.6
20260901223559 69 290 0.0 0.0 0.00 0.00 0.00 58 1006.5
20260901223053 69 277 0.0 0.0 0.00 0.00 0.00 57 1006.6
20260901222555 69 279 0.0 0.0 0.00 0.00 0.00 57 1006.7
20260901222052 70 294 0.0 0.0 0.00 0.00 0.00 56 1006.7
20260901221606 70 286 0.0 0.0 0.00 0.00 0.00 55 1006.6
20260901221053 70 264 0.0 0.0 0.00 0.00 0.00 55 1006.5
20260901220555 71 283 0.0 0.0 0.00 0.00 0.00 54 1006.6
20260901220052 71 288 0.0 0.0 0.00 0.00 0.00 55 1006.4
20260901215552 71 232 0.0 0.0 0.00 0.00 0.00 55 1006.5
20260901215051 70 262 0.0 0.0 0.00 0.00 0.00 55 1006.5
20260901214551 70 321 0.0 0.0 0.00 0.00 0.00 56 1006.5
20260901214052 70 303 0.0 0.0 0.00 0.00 0.00 56 1006.5
20260901213551 70 291 0.0 0.0 0.00 0.00 0.00 56 1006.5
20260901213053 70 294 0.0 0.0 0.00 0.00 0.00 57 1006.5
20260901212548 69 300 0.0 0.0 0.00 0.00 0.00 57 1006.6
20260901212049 69 275 0.0 0.0 0.00 0.00 0.00 57 1006.8
20260901211549 69 265 0.0 0.0 0.00 0.00 0.00 57 1006.6
20260901211049 69 267 0.0 0.0 0.00 0.00 0.00 57 1006.6
20260901210551 69 280 0.0 0.0 0.00 0.00 0.00 57 1006.7
20260901210048 69 252 0.0 0.0 0.00 0.00 0.00 57 1006.6
20260901205548 69 300 0.0 0.0 0.00 0.00 0.00 58 1006.6
20260901205047 69 302 0.0 0.0 0.00 0.00 0.00 57 1006.6
20260901204546 69 277 0.0 0.0 0.00 0.00 0.00 57 1006.7
20260901204046 69 314 0.0 0.0 0.00 0.00 0.00 57 1006.8
20260901203548 69 292 0.0 0.0 0.00 0.00 0.00 57 1006.8
20260901203054 69 248 0.0 0.0 0.00 0.00 0.00 57 1006.9
20260901202545 69 272 0.0 0.0 0.00 0.00 0.00 58 1006.9
20260901202045 69 207 0.0 0.0 0.00 0.00 0.00 57 1006.9
20260901201550 69 243 0.0 0.0 0.00 0.00 0.00 56 1007.0
20260901201046 70 305 0.0 0.0 0.00 0.00 0.00 56 1006.9
20260901200545 70 297 0.0 0.0 0.00 0.00 0.00 56 1006.8
20260901200044 69 290 0.0 0.0 0.00 0.00 0.00 56 1006.9
20260901195544 69 311 0.0 0.0 0.00 0.00 0.00 57 1006.9
20260901195042 69 313 0.0 0.0 0.00 0.00 0.00 58 1007.0
20260901194543 69 292 0.0 0.0 0.00 0.00 0.00 56 1007.1
20260901194042 69 284 0.0 0.0 0.00 0.00 0.00 57 1007.1
20260901193540 69 297 0.0 0.0 0.00 0.00 0.00 58 1007.3
20260901193039 68 313 0.0 0.0 0.00 0.00 0.00 58 1007.5
20260901192538 68 280 0.0 0.0 0.00 0.00 0.00 58 1007.5
20260901192038 68 303 0.0 0.0 0.00 0.00 0.00 59 1007.7
20260901191542 67 287 0.0 0.0 0.00 0.00 0.00 59 1007.7
20260901191039 67 246 0.0 0.0 0.00 0.00 0.00 59 1007.8
20260901190537 67 308 0.0 0.0 0.00 0.00 0.00 59 1007.9
20260901190039 67 286 0.0 0.0 0.00 0.00 0.00 60 1007.8
20260901185536 67 300 0.0 0.0 0.00 0.00 0.00 60 1007.8
20260901185036 67 267 0.0 0.0 0.00 0.00 0.00 61 1007.9
20260901184534 66 292 0.0 0.0 0.00 0.00 0.00 61 1007.8
20260901184034 66 284 0.0 0.0 0.00 0.00 0.00 61 1007.9
20260901183537 66 279 0.0 0.0 0.00 0.00 0.00 62 1007.9
20260901183056 66 291 0.0 0.0 0.00 0.00 0.00 62 1007.9
20260901182533 66 264 0.0 0.0 0.00 0.00 0.00 63 1007.9
20260901182034 66 289 0.0 0.0 0.00 0.00 0.00 63 1007.9
20260901181534 65 278 0.0 0.0 0.00 0.00 0.00 63 1007.9
20260901181034 65 288 0.0 0.0 0.00 0.00 0.00 63 1008.0
20260901180533 65 246 0.0 0.0 0.00 0.00 0.00 64 1008.1
20260901180033 65 268 0.0 0.0 0.00 0.00 0.00 65 1008.0
20260901175533 64 250 0.0 0.0 0.00 0.00 0.00 66 1008.0
20260901175032 64 290 0.0 0.0 0.00 0.00 0.00 65 1008.1
20260901174532 64 298 0.0 0.0 0.00 0.00 0.00 66 1008.0
20260901174031 64 284 0.0 0.0 0.00 0.00 0.00 66 1008.0
20260901173531 63 265 0.0 0.0 0.00 0.00 0.00 67 1007.8
20260901173031 63 258 0.0 0.0 0.00 0.00 0.00 67 1007.9
20260901172533 63 298 0.0 0.0 0.00 0.00 0.00 67 1007.9
20260901172031 63 252 0.0 0.0 0.00 0.00 0.00 68 1007.9
20260901171546 62 275 0.0 0.0 0.00 0.00 0.00 68 1008.0
20260901171034 62 271 0.0 0.0 0.00 0.00 0.00 68 1007.9
20260901170530 62 286 0.0 0.0 0.00 0.00 0.00 68 1007.8
20260901170043 62 289 0.0 0.0 0.00 0.00 0.00 69 1007.9
20260901165530 62 294 0.0 0.0 0.00 0.00 0.00 68 1007.9
20260901165031 62 321 0.0 0.0 0.00 0.00 0.00 69 1007.8
20260901164530 62 263 0.0 0.0 0.00 0.00 0.00 69 1007.9
20260901164030 62 286 0.0 0.0 0.00 0.00 0.00 69 1008.0
20260901163529 62 228 0.0 0.0 0.00 0.00 0.00 70 1007.9
20260901163038 62 315 0.0 0.0 0.00 0.00 0.00 70 1008.0
20260901162529 62 293 0.0 0.0 0.00 0.00 0.00 70 1007.9
20260901162032 62 296 0.0 0.0 0.00 0.00 0.00 70 1008.0
20260901161530 61 321 0.0 0.0 0.00 0.00 0.00 71 1007.8
20260901161030 61 261 0.0 0.0 0.00 0.00 0.00 71 1008.0
20260901160528 61 278 0.0 0.0 0.00 0.00 0.00 71 1007.8
20260901160032 61 308 0.0 0.0 0.00 0.00 0.00 71 1007.8
20260901155528 61 265 0.0 0.0 0.00 0.00 0.00 71 1007.9
20260901155027 61 278 0.0 0.0 0.00 0.00 0.00 71 1007.9
20260901154527 61 336 0.0 0.0 0.00 0.00 0.00 71 1007.9
20260901154028 60 257 0.0 0.0 0.00 0.00 0.00 71 1007.9
20260901153529 60 263 0.0 0.0 0.00 0.00 0.00 71 1007.7
20260901153029 60 282 0.0 0.0 0.00 0.00 0.00 71 1007.9
20260901152529 60 250 0.0 0.0 0.00 0.00 0.00 71 1007.8
20260901152026 60 248 0.0 0.0 0.00 0.00 0.00 71 1007.8
20260901151526 60 236 0.0 0.0 0.00 0.00 0.00 71 1008.0
20260901151026 60 236 0.0 0.0 0.00 0.00 0.00 71 1007.8
20260901150526 60 240 0.0 0.0 0.00 0.00 0.00 71 1007.7
20260901150025 60 285 0.0 0.0 0.00 0.00 0.00 71 1007.8
20260901145525 60 261 0.0 0.0 0.00 0.00 0.00 71 1007.8
20260901145024 60 267 0.0 0.0 0.00 0.00 0.00 71 1007.7
20260901144523 60 271 0.0 0.0 0.00 0.00 0.00 71 1007.6
20260901144023 60 244 0.0 0.0 0.00 0.00 0.00 71 1007.7
20260901143523 61 211 0.0 0.0 0.00 0.00 0.00 71 1007.6
20260901143022 61 237 0.0 0.0 0.00 0.00 0.00 71 1007.6
20260901142521 61 244 0.0 0.0 0.00 0.00 0.00 71 1007.5
20260901142024 61 254 0.0 0.0 0.00 0.00 0.00 71 1007.6
20260901141531 61 242 0.0 0.0 0.00 0.00 0.00 71 1007.5
20260901141023 61 232 0.0 0.0 0.00 0.00 0.00 71 1007.5
20260901140520 61 205 0.0 0.0 0.00 0.00 0.00 71 1007.3
20260901140022 61 234 0.0 0.0 0.00 0.00 0.00 71 1007.3
20260901135521 61 287 0.0 0.0 0.00 0.00 0.00 71 1007.2
20260901135019 61 261 0.0 0.0 0.00 0.00 0.00 71 1007.3
20260901134518 61 281 0.0 0.0 0.00 0.00 0.00 70 1007.3
20260901134017 61 241 0.0 0.0 0.00 0.00 0.00 70 1007.1
20260901133520 61 265 0.0 0.0 0.00 0.00 0.00 70 1007.1
20260901133018 61 300 0.0 0.0 0.00 0.00 0.00 70 1007.0
20260901132515 61 252 0.0 0.0 0.00 0.00 0.00 70 1006.9
20260901132018 61 286 0.0 0.0 0.00 0.00 0.00 70 1006.9
20260901131518 61 274 0.0 0.0 0.00 0.00 0.00 70 1006.9
20260901131019 62 292 0.0 0.0 0.00 0.00 0.00 70 1006.9
20260901130615 62 254 0.0 0.0 0.00 0.00 0.00 70 1006.8
20260901130013 62 301 0.0 0.0 0.00 0.00 0.00 70 1006.8
20260901125511 62 286 0.0 0.0 0.00 0.00 0.00 69 1006.7
20260901125011 62 263 0.0 0.0 0.00 0.00 0.00 69 1006.8
20260901124510 62 248 0.0 0.0 0.00 0.00 0.00 69 1006.7
20260901124008 62 233 0.0 0.0 0.00 0.00 0.00 69 1006.9
20260901123508 63 247 0.0 0.0 0.00 0.00 0.00 69 1006.6
20260901123010 63 271 0.0 0.0 0.00 0.00 0.00 69 1006.6
20260901122506 63 256 0.0 0.0 0.00 0.00 0.00 68 1006.6
20260901122006 63 289 0.0 0.0 0.00 0.00 0.00 68 1006.6
20260901121506 63 287 0.0 0.0 0.00 0.00 0.00 68 1006.6
20260901121010 63 304 0.0 0.0 0.00 0.00 0.00 68 1006.7
20260901120505 63 242 0.0 0.0 0.00 0.00 0.00 67 1006.7
20260901120005 63 244 0.0 0.0 0.00 0.00 0.00 67 1006.6
20260901115504 64 246 0.0 0.0 0.00 0.00 0.00 67 1006.7
20260901115003 64 247 0.0 0.0 0.00 0.00 0.00 67 1006.8
20260901114502 64 267 0.0 0.0 0.00 0.00 0.00 67 1006.6
20260901114003 64 209 0.0 0.0 0.00 0.00 0.00 67 1006.6
20260901113502 64 261 0.0 0.0 0.00 0.00 0.00 67 1006.6
20260901113000 64 230 0.0 0.0 0.00 0.00 0.00 66 1006.6
20260901112600 64 258 0.0 0.0 0.00 0.00 0.00 66 1006.6
20260901112104 64 259 0.0 0.0 0.00 0.00 0.00 66 1006.5
20260901111603 65 260 0.0 0.0 0.00 0.00 0.00 66 1006.5
20260901111059 65 265 0.0 0.0 0.00 0.00 0.00 65 1006.5
20260901110558 65 228 0.0 0.0 0.00 0.00 0.00 65 1006.5
20260901110059 65 273 0.0 0.0 0.00 0.00 0.00 65 1006.3
20260901105559 65 277 0.0 0.0 0.00 0.00 0.00 65 1006.5
20260901105057 65 242 0.0 0.0 0.00 0.00 0.00 64 1006.5
20260901104601 65 282 0.0 0.0 0.00 0.00 0.00 64 1006.4
20260901104057 65 242 0.0 0.0 0.00 0.00 0.00 64 1006.4
20260901103556 65 198 0.0 0.0 0.00 0.00 0.00 63 1006.3
20260901103059 66 269 0.0 0.0 0.00 0.00 0.00 63 1006.3
20260901102557 66 242 0.0 0.0 0.00 0.00 0.00 63 1006.3
20260901102057 66 253 0.0 0.0 0.00 0.00 0.00 62 1006.4
20260901101606 66 263 0.0 0.0 0.00 0.00 0.00 63 1006.5
20260901101056 66 283 0.0 0.0 0.00 0.00 0.00 63 1006.4
20260901100556 65 224 0.0 0.0 0.00 0.00 0.00 63 1006.3
20260901100107 65 256 0.0 0.0 0.00 0.00 0.00 63 1006.2
20260901095556 65 250 0.0 0.0 0.00 0.00 0.00 64 1006.2
20260901095055 65 223 0.0 0.0 0.00 0.00 0.00 64 1006.4
20260901094555 65 274 0.0 0.0 0.00 0.00 0.00 64 1006.4
20260901094056 65 309 0.0 0.0 0.00 0.00 0.00 63 1006.4
20260901093554 65 256 0.0 0.0 0.00 0.00 0.00 63 1006.4
20260901093054 65 252 0.0 0.0 0.00 0.00 0.00 63 1006.4
20260901092554 65 252 0.0 0.0 0.00 0.00 0.00 63 1006.3
20260901092054 65 252 0.0 0.0 0.00 0.00 0.00 62 1006.4
20260901091554 65 266 0.0 0.0 0.00 0.00 0.00 63 1006.4
20260901091054 65 256 0.0 0.0 0.00 0.00 0.00 62 1006.5
20260901090554 65 269 0.0 0.0 0.00 0.00 0.00 62 1006.3
20260901090100 65 278 0.0 0.0 0.00 0.00 0.00 62 1006.2
20260901085552 65 273 0.0 0.0 0.00 0.00 0.00 61 1006.4
20260901085051 65 248 0.0 0.0 0.00 0.00 0.00 59 1006.4
20260901084607 65 272 0.0 0.0 0.00 0.00 0.00 59 1006.4
20260901084050 65 275 0.0 0.0 0.00 0.00 0.00 57 1006.4
20260901083550 65 242 0.0 0.0 0.00 0.00 0.00 56 1006.5
20260901083049 65 242 0.0 0.0 0.00 0.00 0.00 56 1006.5
20260901082548 65 242 0.0 0.0 0.00 0.00 0.00 55 1006.6
20260901082048 65 242 0.0 0.0 0.00 0.00 0.00 54 1006.6
20260901081547 66 242 0.0 0.0 0.00 0.00 0.00 53 1006.6
20260901081048 66 244 0.0 0.0 0.00 0.00 0.00 52 1006.6
20260901080546 66 244 0.0 0.0 0.00 0.00 0.00 52 1006.6
20260901080105 66 257 0.0 0.0 0.00 0.00 0.00 51 1006.6
20260901075546 66 261 0.0 0.0 0.00 0.00 0.00 51 1006.6
20260901075045 66 250 0.0 0.0 0.00 0.00 0.00 51 1006.6
20260901074547 66 254 0.0 0.0 0.00 0.00 0.00 50 1006.5
20260901074047 66 254 0.0 0.0 0.00 0.00 0.00 50 1006.4
20260901073543 66 254 0.0 0.0 0.00 0.00 0.00 49 1006.4
20260901073049 66 254 0.0 0.0 0.00 0.00 0.00 49 1006.4
20260901072542 66 254 0.0 0.0 0.00 0.00 0.00 48 1006.4
20260901072048 66 254 0.0 0.0 0.00 0.00 0.00 48 1006.3
20260901071541 66 254 0.0 0.0 0.00 0.00 0.00 48 1006.3
20260901071040 66 254 0.0 0.0 0.00 0.00 0.00 47 1006.3
20260901070543 66 257 0.0 0.0 0.00 0.00 0.00 47 1006.3
20260901070039 66 215 0.0 0.0 0.00 0.00 0.00 47 1006.2
20260901065539 66 215 0.0 0.0 0.00 0.00 0.00 46 1006.1
20260901065038 66 215 0.0 0.0 0.00 0.00 0.00 46 1006.2
20260901064538 66 215 0.0 0.0 0.00 0.00 0.00 46 1006.2
20260901064037 66 215 0.0 0.0 0.00 0.00 0.00 46 1006.1
20260901063537 66 215 0.0 0.0 0.00 0.00 0.00 46 1006.1
20260901063037 66 215 0.0 0.0 0.00 0.00 0.00 45 1006.2
20260901062537 66 215 0.0 0.0 0.00 0.00 0.00 45 1006.2
20260901062037 66 213 0.0 0.0 0.00 0.00 0.00 45 1006.2
20260901061537 66 211 0.0 0.0 0.00 0.00 0.00 45 1006.3
20260901061037 66 159 0.0 0.0 0.00 0.00 0.00 44 1006.2
20260901060537 66 159 0.0 0.0 0.00 0.00 0.00 44 1006.2
20260901060041 67 159 0.0 0.0 0.00 0.00 0.00 43 1006.2
20260901055536 67 159 0.0 0.0 0.00 0.00 0.00 43 1006.2
20260901055036 67 159 0.0 0.0 0.00 0.00 0.00 42 1006.2
20260901054537 68 159 0.0 0.0 0.00 0.00 0.00 41 1006.4
20260901054036 68 159 0.0 0.0 0.00 0.00 0.00 41 1006.5
20260901053535 68 159 0.0 0.0 0.00 0.00 0.00 41 1006.5
20260901053045 68 159 0.0 0.0 0.00 0.00 0.00 41 1006.5
20260901052535 68 159 0.0 0.0 0.00 0.00 0.00 40 1006.5
20260901052035 69 159 0.0 0.0 0.00 0.00 0.00 40 1006.5
20260901051535 69 159 0.0 0.0 0.00 0.00 0.00 39 1006.6
20260901051035 69 159 0.0 0.0 0.00 0.00 0.00 39 1006.5
20260901050537 69 159 0.0 0.0 0.00 0.00 0.00 38 1006.5
20260901050036 69 159 0.0 0.0 0.00 0.00 0.00 38 1006.3
20260901045536 69 159 0.0 0.0 0.00 0.00 0.00 38 1006.4
20260901045034 70 159 0.0 0.0 0.00 0.00 0.00 38 1006.3
20260901044535 70 159 0.0 0.0 0.00 0.00 0.00 37 1006.3
20260901044035 70 159 0.0 0.0 0.00 0.00 0.00 37 1006.2
20260901043535 70 159 0.0 0.0 0.00 0.00 0.00 37 1006.2
20260901043033 70 159 0.0 0.0 0.00 0.00 0.00 37 1006.2
20260901042533 70 159 0.0 0.0 0.00 0.00 0.00 36 1006.2
20260901042037 70 159 0.0 0.0 0.00 0.00 0.00 36 1006.2
20260901041540 70 159 0.0 0.0 0.00 0.00 0.00 36 1006.2
20260901041036 70 159 0.0 0.0 0.00 0.00 0.00 36 1006.1
20260901040537 70 159 0.0 0.0 0.00 0.00 0.00 35 1006.0
20260901040036 70 159 0.0 0.0 0.00 0.00 0.00 35 1006.0
20260901035536 70 155 0.0 0.0 0.00 0.00 0.00 34 1005.9
20260901035032 70 155 0.0 0.0 0.00 0.00 0.00 35 1005.8
20260901034533 70 155 0.0 0.0 0.00 0.00 0.00 35 1005.9
20260901034032 70 155 0.0 0.0 0.00 0.00 0.00 34 1005.8
20260901033535 70 155 0.0 0.0 0.00 0.00 0.00 34 1005.8
20260901033032 70 155 0.0 0.0 0.00 0.00 0.00 34 1005.7
20260901032532 70 155 0.0 0.0 0.00 0.00 0.00 34 1005.6
20260901032032 70 155 0.0 0.0 0.00 0.00 0.00 35 1005.5